This is the latest recevied weather packets stored in our database for station/object NK2J. If no packets are shown the sender has not sent any weather packets the latest 10 day(s).
| Time | Temp. | Humidity | Pressure | Rain* | Wind** | Luminosity | Snow |
|---|---|---|---|---|---|---|---|
| 1777822396 | 27.78° C | 29% | 1013.9 hPa | 0 mm | - | 252 W/m² | - |
| 1777822093 | 27.78° C | 29% | 1013.9 hPa | 0 mm | - | 304 W/m² | - |
| 1777821791 | 27.22° C | 29% | 1014.1 hPa | 0 mm | - | 287 W/m² | - |
| 1777821488 | 27.22° C | 30% | 1014 hPa | 0 mm | - | 181 W/m² | - |
| 1777821185 | 27.22° C | 30% | 1013.9 hPa | 0 mm | - | 173 W/m² | - |
| 1777820882 | 26.67° C | 30% | 1014 hPa | 0 mm | - | 175 W/m² | - |
| 1777820578 | 26.67° C | 30% | 1013.7 hPa | 0 mm | - | 169 W/m² | - |
| 1777820275 | 26.67° C | 30% | 1013.9 hPa | 0 mm | - | 157 W/m² | - |
| 1777819972 | 26.67° C | 30% | 1014.1 hPa | 0 mm | - | 155 W/m² | - |
| 1777819669 | 26.67° C | 30% | 1014.2 hPa | 0 mm | - | 131 W/m² | - |
| 1777819368 | 26.67° C | 30% | 1014.2 hPa | 0 mm | - | 122 W/m² | - |
| 1777819064 | 26.11° C | 30% | 1014.1 hPa | 0 mm | - | 110 W/m² | - |
| 1777818761 | 26.11° C | 30% | 1014.1 hPa | 0 mm | - | 107 W/m² | - |
| 1777818457 | 26.11° C | 30% | 1014.1 hPa | 0 mm | - | 104 W/m² | - |
| 1777818154 | 26.11° C | 31% | 1013.9 hPa | 0 mm | - | 92 W/m² | - |
| 1777817851 | 26.11° C | 31% | 1014.2 hPa | 0 mm | - | 85 W/m² | - |
| 1777817549 | 25.56° C | 31% | 1014.1 hPa | 0 mm | - | 79 W/m² | - |
| 1777817245 | 25.56° C | 31% | 1014.1 hPa | 0 mm | - | 72 W/m² | - |
| 1777816943 | 25.56° C | 31% | 1014 hPa | 0 mm | - | 60 W/m² | - |
| 1777816639 | 25.56° C | 32% | 1013.9 hPa | 0 mm | - | 56 W/m² | - |
| 1777816336 | 25.56° C | 32% | 1013.9 hPa | 0 mm | - | 57 W/m² | - |
| 1777816033 | 25° C | 32% | 1013.8 hPa | 0 mm | - | 52 W/m² | - |
| 1777815731 | 25° C | 32% | 1013.8 hPa | 0 mm | - | 46 W/m² | - |
| 1777815428 | 25° C | 32% | 1013.6 hPa | 0 mm | - | 45 W/m² | - |
| 1777815125 | 25° C | 32% | 1013.5 hPa | 0 mm | - | 39 W/m² | - |
* Rain latest hour (hover to see other rain measurements)
** Current wind speed in m/s (hover to see current wind gust speed)